Vertical_Velocity
1 -1 -1 -1 1 0 1 1 -0 1 -1 -1 -0 -0 1 0 -3 -2 -1 0 1 0 -0 2 3 1 -1 1 -1 1 0 1 1
1 -0 1 -1 -1 -1 -0 1 1 -0 0 0 1 1 -0 -0 0 1 1 -0 -0 1 -0 1 1 1 1 -1 -1 -2 -0 1 -0
1 -1 2 -1 1 1 -1 0 -1 0 -1 -1 -0 0 1 -1 -0 -1 -1 0 0 0 1 1 -0 1 1 0 -2 -1 -3 -1 0
-0 -0 -0 1 0 0 0 1 -0 0 -0 -1 -1 -1 0 -1 0 -1 -1 -0 -1 1 0 -0 0 0 0 -1 -2 -1 -1 -2 -1
0 -1 -0 -0 -1 1 0 2 2 -0 -0 0 -0 -1 0 -1 0 1 -0 -1 -1 -0 1 -0 -0 -0 -0 -1 -0 -2 -0 -1 -2
0 -0 -1 -1 -0 0 -0 1 1 1 -0 -1 2 0 -1 -0 -1 -0 0 -1 -0 -1 -0 0 0 -0 -1 0 -0 -1 -0 -2 -1
-0 0 -0 -1 -1 -1 1 2 2 0 -1 -2 1 2 1 1 -1 0 0 -1 -0 1 0 -0 1 -1 -0 -1 -1 1 -1 -2 -2
0 1 -1 -1 -1 -1 -1 1 2 1 -1 -1 0 -0 -0 2 1 -0 1 0 -1 -0 1 -0 0 0 -1 -1 0 1 2 1 -2
0 1 -0 1 1 -0 2 1 1 1 1 -0 -1 -1 -1 -1 0 -1 1 1 2 1 0 1 0 -1 1 -0 -1 -1 -0 0 0
1 0 -0 1 1 0 1 1 4 1 0 -0 -1 -1 -1 -1 -0 -1 0 -0 0 1 -0 0 -0 0 0 -0 1 0 -1 -1 -0
0 0 0 0 0 -1 -1 0 2 0 1 0 -0 0 1 -2 -0 0 -1 -0 -0 1 -0 -0 -1 -1 -0 0 0 1 0 -1 -0
0 -0 -0 -0 -0 -0 -2 -1 2 -0 1 0 0 -1 1 1 0 0 -1 0 -1 0 -0 1 1 -0 0 -1 0 0 1 1 1
-1 -2 -1 -1 -1 -0 -1 -2 1 -0 0 -0 2 0 0 0 -0 -1 -1 -1 -1 -0 -1 0 -0 -1 0 -1 -1 1 1 1 1
-1 -1 -1 0 -1 -0 -1 -0 1 1 -1 -0 1 -1 -1 -0 1 -0 1 -1 -1 -0 -0 -1 0 0 0 -1 -1 -1 0 0 -0
-0 0 -1 0 -0 -1 -1 0 1 3 -3 -2 2 1 -0 -0 0 1 -1 1 -0 -0 0 1 -0 1 0 1 0 -0 1 0 1
-2 0 -1 -1 -0 2 -1 -1 -0 -0 2 -1 -1 4 1 1 -1 -0 0 -0 1 1 1 0 0 1 1 1 0 1 1 1 0
-3 -1 -2 -2 -4 -0 1 -1 -1 -3 2 -0 -0 -0 3 -2 1 1 -0 1 0 0 0 0 0 1 2 1 0 0 1 1 1
-2 -2 -0 -1 0 -2 1 -1 0 -3 -1 -2 3 -1 -0 1 1 -1 -1 -0 -1 0 -0 1 0 0 1 1 1 1 1 0 0
2 1 -1 -2 -2 -1 -2 -0 -0 -3 -2 -1 -1 0 1 -1 1 1 -1 -1 -3 0 1 1 -0 -1 -0 -0 0 1 0 0 0
-0 2 1 1 1 -1 -0 -1 -2 -1 -2 -2 -1 1 -1 1 -1 -1 -2 2 -0 -1 -0 1 -0 -1 -1 -1 0 1 1 1 -0
Height
5889 5892 5894 5896 5898 5899 5901 5902 5903 5903 5904 5904 5905 5905 5904 5904 5902 5902 5902 5902 5902 5902 5901 5901 5900 5899 5898 5897 5896 5894 5893 5890 5888
5888 5891 5894 5895 5898 5899 5901 5902 5903 5904 5905 5905 5906 5906 5906 5905 5904 5904 5904 5904 5904 5903 5902 5902 5901 5900 5899 5898 5897 5895 5893 5891 5889
5887 5889 5893 5894 5897 5899 5901 5903 5904 5905 5906 5906 5907 5907 5907 5906 5906 5906 5905 5905 5904 5904 5903 5903 5902 5901 5900 5899 5898 5896 5895 5893 5890
5886 5888 5890 5893 5895 5898 5900 5903 5904 5905 5906 5907 5907 5907 5908 5907 5907 5907 5907 5907 5906 5905 5904 5903 5902 5902 5901 5900 5898 5897 5896 5894 5892
5884 5887 5889 5891 5893 5896 5898 5901 5903 5904 5905 5906 5907 5907 5907 5908 5908 5908 5908 5908 5907 5906 5905 5904 5903 5902 5902 5901 5900 5898 5896 5895 5893
5882 5885 5888 5890 5892 5894 5897 5900 5901 5902 5903 5905 5906 5907 5907 5907 5907 5908 5908 5908 5907 5907 5906 5905 5904 5903 5902 5901 5900 5899 5897 5896 5894
5880 5883 5885 5888 5890 5892 5894 5898 5900 5900 5901 5903 5904 5905 5906 5906 5906 5907 5907 5907 5907 5907 5906 5905 5905 5903 5902 5902 5901 5899 5898 5896 5895
5877 5880 5882 5885 5887 5889 5892 5895 5898 5899 5899 5900 5902 5903 5904 5905 5905 5905 5906 5906 5906 5906 5906 5905 5904 5904 5902 5901 5901 5899 5898 5897 5895
5874 5877 5880 5882 5884 5886 5889 5891 5894 5897 5898 5898 5900 5901 5902 5903 5903 5903 5904 5904 5905 5905 5905 5905 5904 5903 5902 5901 5900 5899 5898 5897 5896
5871 5874 5877 5879 5881 5883 5885 5888 5890 5893 5895 5896 5897 5898 5899 5900 5901 5901 5902 5903 5903 5903 5903 5903 5903 5903 5902 5901 5900 5899 5898 5897 5896
5867 5870 5873 5875 5878 5880 5882 5884 5887 5889 5891 5892 5893 5894 5896 5897 5898 5899 5899 5899 5900 5900 5901 5901 5901 5901 5900 5900 5899 5898 5897 5896 5895
5863 5866 5869 5871 5874 5876 5878 5879 5882 5885 5887 5888 5889 5890 5892 5893 5894 5895 5895 5896 5896 5897 5897 5898 5898 5898 5898 5898 5897 5896 5896 5895 5894
5860 5863 5865 5868 5870 5872 5874 5875 5876 5879 5881 5883 5885 5886 5887 5889 5890 5890 5891 5892 5893 5893 5894 5894 5895 5895 5895 5895 5895 5895 5894 5893 5893
5857 5859 5862 5864 5866 5868 5870 5872 5873 5874 5876 5877 5880 5882 5883 5884 5885 5887 5887 5888 5889 5889 5890 5890 5891 5891 5892 5892 5892 5892 5891 5891 5890
5852 5856 5858 5861 5862 5864 5866 5868 5869 5871 5871 5872 5874 5876 5878 5879 5880 5882 5883 5883 5884 5885 5885 5886 5887 5887 5888 5888 5888 5888 5888 5888 5887
5848 5851 5853 5855 5857 5859 5861 5863 5864 5866 5867 5868 5868 5870 5871 5873 5874 5876 5878 5878 5879 5880 5881 5882 5883 5883 5883 5884 5884 5884 5884 5884 5884
5843 5845 5848 5850 5852 5855 5856 5858 5859 5860 5862 5862 5863 5865 5866 5866 5868 5869 5871 5872 5873 5874 5875 5876 5877 5878 5878 5879 5879 5879 5880 5880 5880
5836 5839 5842 5845 5847 5848 5851 5852 5854 5855 5855 5856 5858 5858 5860 5859 5861 5862 5863 5864 5866 5868 5869 5870 5871 5872 5873 5873 5874 5874 5874 5874 5874
5831 5834 5836 5838 5840 5843 5844 5845 5847 5848 5849 5850 5851 5851 5854 5854 5855 5855 5855 5856 5857 5859 5862 5863 5864 5865 5866 5867 5868 5868 5868 5869 5868
5823 5826 5829 5832 5834 5835 5837 5839 5839 5841 5842 5843 5844 5846 5847 5847 5848 5847 5848 5849 5850 5851 5852 5854 5855 5856 5858 5859 5860 5861 5862 5862 5862